Weather History for Boston, MA

Change the Weather History Date:

Thursday, March 28, 2013

  Actual Average Record
Temperature  
Mean Temperature 43 °F 42 °F  
Max Temperature 48 °F 49 °F 85 °F (1998)
Min Temperature 38 °F 35 °F 11 °F (1923)
Degree Days  
Heating Degree Days 22 23  
Month to date heating degree days 786 761  
Since 1 July heating degree days 4588 4803  
Cooling Degree Days 0 0  
Month to date cooling degree days 0 0  
Year to date cooling degree days 0 0  
Moisture  
Dew Point 32 °F    
Average Humidity 69    
Maximum Humidity 85    
Minimum Humidity 53    
Precipitation  
Precipitation T in 0.15 in 2.43 in (1932)
Month to date precipitation 2.54 3.91  
Year to date precipitation 8.88 10.52  
Sea Level Pressure  
Sea Level Pressure 29.94 in    
Wind  
Wind Speed 9 mph (NNW)    
Max Wind Speed 15 mph    
Max Gust Speed 22 mph    
Visibility 10 miles    
Events Rain    
T = Trace of Precipitation, MM = Missing Value Source: NWS Daily Summary

Daily Weather History Graph

Daily Weather History Graph

Search for Another Location

Airport:

Trip Planner

Search our weather history database for the weather conditions in past years. The results will help you decide how hot, cold, wet, or windy it might be!

Date:

Astronomy

Mar. 28, 2013 Rise Set
Actual Time 6:33 AM EDT 7:05 PM EDT
Civil Twilight 6:04 AM EDT 7:33 PM EDT
Nautical Twilight 5:31 AM EDT 8:07 PM EDT
Astronomical Twilight 4:57 AM EDT 8:41 PM EDT
Moon 8:56 PM EDT (3/28) 6:56 AM EDT (3/28)
Length of Visible Light 13h 29m
Length of Day
12h 32m
Full, 98% of the Moon is Illuminated
Mar 28
Full
Apr 3
Last Quarter
Apr 10
New
Apr 18
First Quarter
Apr 25
Full

Hourly Weather History & Observations

Time (EDT) Temp. Windchill Dew Point Humidity Pressure Visibility Wind Dir Wind Speed Gust Speed Precip Events Conditions
12:41 AM 41.0 °F 33.1 °F 30.2 °F 65% 29.87 in 10.0 mi NW 15.0 mph - N/A   Overcast
12:54 AM 41.0 °F 33.1 °F 30.9 °F 67% 29.87 in 10.0 mi NW 15.0 mph - N/A   Overcast
1:54 AM 39.0 °F 32.8 °F 33.1 °F 79% 29.87 in 10.0 mi NNW 9.2 mph - 0.00 in   Overcast
2:14 AM 39.2 °F 32.5 °F 33.8 °F 81% 29.87 in 10.0 mi NNW 10.4 mph - 0.00 in Rain Light Rain
2:37 AM 39.2 °F 32.5 °F 33.8 °F 81% 29.88 in 10.0 mi NNW 10.4 mph - 0.00 in Rain Light Rain
2:54 AM 39.0 °F 30.6 °F 33.1 °F 79% 29.88 in 10.0 mi NNW 15.0 mph 19.6 mph 0.00 in Rain Light Rain
3:47 AM 37.4 °F 29.8 °F 33.8 °F 87% 29.88 in 10.0 mi NNW 11.5 mph - 0.00 in   Overcast
3:54 AM 37.9 °F 29.6 °F 34.0 °F 86% 29.88 in 10.0 mi NNW 13.8 mph - 0.00 in   Overcast
4:54 AM 37.9 °F 30.0 °F 33.1 °F 83% 29.88 in 10.0 mi NW 12.7 mph - N/A   Overcast
5:54 AM 37.9 °F 30.0 °F 33.1 °F 83% 29.89 in 10.0 mi NNW 12.7 mph 20.7 mph N/A   Overcast
6:16 AM 39.2 °F 32.5 °F 33.8 °F 81% 29.90 in 10.0 mi NW 10.4 mph - N/A   Overcast
6:54 AM 37.9 °F 30.5 °F 33.1 °F 83% 29.91 in 10.0 mi NNW 11.5 mph - N/A   Overcast
7:54 AM 39.0 °F 32.8 °F 33.1 °F 79% 29.93 in 10.0 mi North 9.2 mph - N/A   Overcast
8:06 AM 39.2 °F 33.0 °F 32.0 °F 75% 29.93 in 10.0 mi North 9.2 mph - N/A   Overcast
8:54 AM 41.0 °F 35.2 °F 32.0 °F 70% 29.94 in 10.0 mi North 9.2 mph - N/A   Overcast
9:54 AM 45.0 °F 39.7 °F 30.9 °F 58% 29.94 in 10.0 mi NNE 10.4 mph - N/A   Mostly Cloudy
10:54 AM 46.9 °F - 30.0 °F 52% 29.95 in 10.0 mi NE 10.4 mph - N/A   Overcast
11:54 AM 45.0 °F 39.7 °F 30.0 °F 56% 29.96 in 10.0 mi East 10.4 mph - N/A   Overcast
12:54 PM 44.1 °F 40.1 °F 30.0 °F 58% 29.95 in 10.0 mi East 6.9 mph - N/A   Overcast
1:54 PM 44.1 °F 40.1 °F 30.9 °F 60% 29.96 in 10.0 mi East 6.9 mph - 0.00 in Rain Light Rain
2:54 PM 44.1 °F 39.5 °F 30.0 °F 58% 29.95 in 10.0 mi East 8.1 mph - 0.00 in   Overcast
3:54 PM 44.1 °F 40.1 °F 30.9 °F 60% 29.96 in 10.0 mi ESE 6.9 mph - N/A   Overcast
4:54 PM 42.1 °F 38.4 °F 30.9 °F 65% 29.96 in 10.0 mi SE 5.8 mph - N/A   Overcast
5:54 PM 42.1 °F 39.2 °F 32.0 °F 67% 29.97 in 10.0 mi SSW 4.6 mph - 0.00 in   Overcast
6:54 PM 42.1 °F 40.2 °F 32.0 °F 67% 29.99 in 10.0 mi SW 3.5 mph - N/A   Overcast
7:54 PM 45.0 °F 41.8 °F 32.0 °F 60% 30.00 in 10.0 mi WNW 5.8 mph - N/A   Overcast
8:54 PM 46.0 °F 42.5 °F 30.9 °F 56% 30.01 in 10.0 mi West 6.9 mph - N/A   Overcast
9:54 PM 45.0 °F 41.2 °F 30.9 °F 58% 30.02 in 10.0 mi WNW 6.9 mph - N/A   Overcast
10:54 PM 45.0 °F 41.8 °F 30.9 °F 58% 30.02 in 10.0 mi West 5.8 mph - N/A   Overcast
11:54 PM 44.1 °F 40.1 °F 30.0 °F 58% 30.01 in 10.0 mi WNW 6.9 mph - N/A   Overcast